Weather History for Twentynine Palms, CA

Change the Weather History Date:

Thursday, October 4, 2012

  Actual Average Record
Temperature  
Mean Temperature 80 °F -  
Max Temperature 95 °F 87 °F 95 °F (1996)
Min Temperature 64 °F 59 °F 50 °F (2002)
Cooling Degree Days 14    
Growing Degree Days 30 (Base 50)    
Moisture  
Dew Point 30 °F    
Average Humidity 19    
Maximum Humidity 32    
Minimum Humidity 7    
Precipitation  
Precipitation 0.00 in - - ()
Sea Level Pressure  
Sea Level Pressure 29.96 in    
Wind  
Wind Speed 6 mph (NW)    
Max Wind Speed 16 mph    
Max Gust Speed 23 mph    
Visibility 9 miles    
Events      
Averages and records for this station are not official NWS values.
T = Trace of Precipitation, MM = Missing Value Source: NWS Daily Summary

Daily Weather History Graph

Daily Weather History Graph

Search for Another Location

Airport:

Trip Planner

Search our weather history database for the weather conditions in past years. The results will help you decide how hot, cold, wet, or windy it might be!

Date:

Astronomy

Oct. 04, 2012 Rise Set
Actual Time 6:41 AM PDT 6:23 PM PDT
Civil Twilight 6:16 AM PDT 6:48 PM PDT
Nautical Twilight 5:47 AM PDT 7:17 PM PDT
Astronomical Twilight 5:18 AM PDT 7:47 PM PDT
Moon 9:14 PM PDT (10/4) 10:51 AM PDT (10/4)
Length of Visible Light 12h 32m
Length of Day
11h 42m
Waning Gibbous, 81% of the Moon is Illuminated
Oct 4
Waning Gibbous
Oct 8
Last Quarter
Oct 15
New
Oct 21
First Quarter
Oct 29
Full

Hourly Weather History & Observations

Time (PDT) Temp. Dew Point Humidity Pressure Visibility Wind Dir Wind Speed Gust Speed Precip Events Conditions
12:56 AM 73.9 °F 35.1 °F 24% 29.93 in 10.0 mi West 9.2 mph - N/A   Clear
1:56 AM 70.0 °F 35.1 °F 28% 29.94 in 10.0 mi West 3.5 mph - N/A   Clear
2:56 AM 66.0 °F 35.1 °F 32% 29.94 in 10.0 mi North 3.5 mph - N/A   Clear
3:56 AM 68.0 °F 34.0 °F 28% 29.94 in 10.0 mi NNW 4.6 mph - N/A   Clear
4:56 AM 66.9 °F 30.9 °F 26% 29.95 in 10.0 mi WNW 5.8 mph - N/A   Clear
5:56 AM 64.0 °F 30.9 °F 29% 29.97 in 10.0 mi NNW 4.6 mph - N/A   Clear
6:56 AM 64.9 °F 28.9 °F 26% 29.99 in 10.0 mi West 8.1 mph - N/A   Clear
7:56 AM 64.0 °F 32.0 °F 30% 30.00 in 7.0 mi Calm Calm - N/A   Scattered Clouds
8:56 AM 73.0 °F 28.0 °F 19% 30.01 in 7.0 mi NNW 4.6 mph - N/A   Scattered Clouds
9:56 AM 80.1 °F 30.9 °F 17% 30.01 in 7.0 mi NNE 3.5 mph - N/A   Scattered Clouds
10:56 AM 84.0 °F 28.9 °F 14% 30.01 in 7.0 mi Calm Calm - N/A   Partly Cloudy
11:56 AM 89.1 °F 30.0 °F 12% 30.00 in 7.0 mi Calm Calm - N/A   Partly Cloudy
12:56 PM 90.0 °F 28.0 °F 11% 29.97 in 7.0 mi Calm Calm - N/A   Partly Cloudy
1:56 PM 91.9 °F 24.1 °F 9% 29.94 in 7.0 mi South 5.8 mph - N/A   Partly Cloudy
2:56 PM 93.0 °F 24.1 °F 8% 29.93 in 7.0 mi SSW 9.2 mph - N/A   Partly Cloudy
3:56 PM 95.0 °F 21.0 °F 7% 29.91 in 7.0 mi NW 10.4 mph - N/A   Partly Cloudy
4:56 PM 93.0 °F 21.0 °F 7% 29.91 in 10.0 mi WNW 11.5 mph 20.7 mph N/A   Clear
5:56 PM 90.0 °F 24.1 °F 9% 29.91 in 10.0 mi WNW 16.1 mph 23.0 mph N/A   Clear
6:56 PM 84.9 °F 28.0 °F 13% 29.92 in 10.0 mi WNW 15.0 mph - N/A   Clear
7:56 PM 82.0 °F 30.0 °F 15% 29.95 in 10.0 mi North 5.8 mph - N/A   Clear
8:56 PM 82.0 °F 32.0 °F 16% 29.95 in 10.0 mi NW 6.9 mph - N/A   Clear
9:56 PM 78.1 °F 36.0 °F 22% 29.96 in 10.0 mi WNW 5.8 mph - N/A   Clear
10:56 PM 79.0 °F 37.9 °F 23% 29.97 in 10.0 mi NW 10.4 mph - N/A   Clear
11:56 PM 75.9 °F 37.0 °F 24% 29.96 in 10.0 mi NW 10.4 mph - N/A   Clear